IRIDIUM 97 [+]

Last updated on Wed May 30 2018 00:19:59 GMT+0000 (Coordinated Universal Time)

1 27450U 02031A 18149.58763694 .00000027 00000-0 23728-5 0 9991 2 27450 86.4237 174.1587 0002498 91.0040 269.1445 14.38601722839869
UTC large
Height (km)
Speed (km/s)
/
Latitude / Longitude
Inclination (degrees)
Orbital Period (minutes)
Azimuth
Elevation
Range (km)
Doppler Factor

Next 0 passes for location: London (51.5072 / 0.1276)

Sorry there are no passes over London.